Location: Riedlingen
(48.1569°N, 9.4757°E)
Time: 00:50:15
(UTC+01:00)

ISS - Pass Details

Date: 14 November 2017
Orbit: 402 x 407 km, 51.6° (Epoch: 24 November)

Event Time Altitude Azimuth Distance (km) Brightness Sun altitude
Exits shadow 05:45:14 51° 265° (W) 517 -3.7 -17.0°
Maximum altitude 05:45:51 67° 208° (SSW) 440 -3.8 -16.9°
Drops below altitude 10° 05:49:05 10° 125° (SE) 1,451 0.0 -16.4°
Sets 05:51:10 0° 122° (ESE) 2,308 1.3 -16.0°
